Wellsville, NY

11:25 PM EDT on October 15, 2019 (GMT -0400)
Wellsville Municipal-Tarantine

Weather History for KELZ - August, 2019

Change the Weather History Date:

Saturday, August 3, 2019

  Actual Average (KDSV) Record (KDSV)
Temperature  
Mean Temperature 70 °F -  
Max Temperature 78 °F 84 °F 99 °F (1955)
Min Temperature 61 °F 59 °F 43 °F (1956)
Cooling Degree Days 4    
Growing Degree Days 20 (Base 50)    
Moisture  
Dew Point 61 °F    
Average Humidity 80    
Maximum Humidity 100    
Minimum Humidity 51    
Precipitation  
Precipitation 0.00 in - - ()
Sea Level Pressure  
Sea Level Pressure 30.07 in    
Wind  
Wind Speed 4 mph ()    
Max Wind Speed 9 mph    
Max Gust Speed -    
Visibility 8.6 miles    
Events      
Averages and records for this station are not official NWS values.
T = Trace of Precipitation, MM = Missing Value Source: Averaged Metar Reports

Daily Weather History Graph

Daily Weather History Graph

Search for Another Location

Airport or City:

Astronomy

Aug. 03, 2019 Rise Set
Actual Time 6:06 AM EDT 8:28 PM EDT
Civil Twilight 5:35 AM EDT 9:00 PM EDT
Nautical Twilight 4:56 AM EDT 9:38 PM EDT
Astronomical Twilight 4:13 AM EDT 10:21 PM EDT
Moon 8:59 AM EDT (8/3) 10:29 PM EDT (8/3)
Length of Visible Light 15h 24m
Length of Day
14h 21m
Waxing Crescent, 10% of the Moon is Illuminated
Aug 3
Waxing Crescent
Aug 7
First Quarter
Aug 15
Full
Aug 23
Last Quarter
Aug 30
New

Hourly Weather History & Observations

Time (EDT) Temp. Dew Point Humidity Pressure Visibility Wind Dir Wind Speed Gust Speed Precip Events Conditions
12:56 AM 66.0 °F 63.0 °F 90% 30.10 in 10.0 mi SW 6.9 mph - N/A   Partly Cloudy
1:56 AM 64.9 °F 63.0 °F 93% 30.09 in 10.0 mi SW 6.9 mph - N/A   Clear
2:56 AM 64.9 °F 62.1 °F 90% 30.08 in 10.0 mi SW 4.6 mph - N/A   Clear
3:56 AM 64.0 °F 62.1 °F 93% 30.08 in 10.0 mi SW 5.8 mph - N/A   Clear
4:56 AM 61.0 °F 61.0 °F 100% 30.08 in 5.0 mi Calm Calm - N/A   Clear
5:56 AM 61.0 °F 61.0 °F 100% 30.09 in 4.0 mi Calm Calm - N/A   Clear
6:36 AM 62.1 °F 62.1 °F 100% 30.11 in 1.5 mi Calm Calm - N/A   Clear
6:47 AM 62.1 °F 62.1 °F 100% 30.12 in 3.0 mi Calm Calm - N/A   Clear
6:56 AM 62.1 °F 62.1 °F 100% 30.09 in 2.5 mi Calm Calm - N/A   Clear
7:11 AM 63.0 °F 62.1 °F 97% 30.12 in 4.0 mi Calm Calm - N/A   Clear
7:56 AM 64.9 °F 64.0 °F 97% 30.09 in 7.0 mi Variable 4.6 mph - N/A   Clear
8:56 AM 66.9 °F 64.9 °F 93% 30.10 in 10.0 mi West 6.9 mph - N/A   Clear
9:06 AM 66.9 °F 64.0 °F 90% 30.13 in 10.0 mi WNW 6.9 mph - N/A   Partly Cloudy
9:23 AM 70.0 °F 66.0 °F 87% 30.12 in 10.0 mi Variable 4.6 mph - N/A   Mostly Cloudy
9:56 AM 69.1 °F 64.0 °F 84% 30.10 in 10.0 mi Variable 3.5 mph - N/A   Mostly Cloudy
10:11 AM 69.1 °F 64.0 °F 84% 30.12 in 10.0 mi NE 5.8 mph - N/A   Mostly Cloudy
10:56 AM 72.0 °F 64.9 °F 78% 30.09 in 10.0 mi NNW 5.8 mph - N/A   Scattered Clouds
11:56 AM 73.9 °F 63.0 °F 68% 30.08 in 10.0 mi Variable 6.9 mph - N/A   Partly Cloudy
12:56 PM 75.0 °F 63.0 °F 66% 30.06 in 10.0 mi NNW 9.2 mph - N/A   Scattered Clouds
1:56 PM 75.9 °F 63.0 °F 64% 30.05 in 10.0 mi Calm Calm - N/A   Scattered Clouds
2:56 PM 78.1 °F 61.0 °F 56% 30.03 in 10.0 mi NW 9.2 mph - N/A   Partly Cloudy
3:56 PM 75.9 °F 60.1 °F 58% 30.01 in 10.0 mi NNW 8.1 mph - N/A   Partly Cloudy
4:56 PM 77.0 °F 57.9 °F 52% 30.01 in 10.0 mi NNW 6.9 mph - N/A   Clear
5:56 PM 75.0 °F 55.9 °F 51% 30.01 in 10.0 mi NNW 9.2 mph - N/A   Clear
6:56 PM 72.0 °F 55.0 °F 55% 30.01 in 10.0 mi NW 8.1 mph - N/A   Clear
7:56 PM 68.0 °F 55.0 °F 63% 30.03 in 10.0 mi NW 9.2 mph - N/A   Clear
8:56 PM 64.0 °F 55.0 °F 73% 30.04 in 10.0 mi WNW 5.8 mph - N/A   Clear
9:56 PM 64.9 °F 52.0 °F 63% 30.04 in 10.0 mi Calm Calm - N/A   Clear
10:56 PM 61.0 °F 52.0 °F 72% 30.04 in 10.0 mi WNW 5.8 mph - N/A   Clear
11:56 PM 62.1 °F 53.1 °F 72% 30.04 in 10.0 mi Calm Calm - N/A   Clear